Home > Weather > Hilo > Past weeks

Flag for USA Past Weather in Hilo, Hawaii, USA — Yesterday and Last 2 Weeks

Now
72 °F

Overcast.


Feels Like: 72 °F
Forecast: 70 / 83 °F
Wind: 9 mph from West

Location: Hilo International Airport

Current Time: May 28, 2016 at 1:59:28 AM

Latest Report: May 28, 2016 at 12:53 AM


Visibility: 10 mi

Pressure: 30.06 "Hg

Humidity: 81%

Dew Point: 66 °F

Location of HiloLocation

Past Weather in Hilo — Graph

°F

Hilo Temperature Yesterday

Maximum temperature yesterday: 83 °F (at 9:53 AM)
Minimum temperature yesterday: 69 °F (at 5:53 AM)
Average temperature yesterday: 75 °F

High & Low Weather Summary for the Past Weeks

 TemperatureHumidityPressure
High85 °F (May 15, 11:53 AM)94% (May 13, 1:19 AM)30.16 "Hg (May 13, 1:19 AM)
Low66 °F (May 23, 4:53 AM)51% (May 15, 2:53 PM)29.93 "Hg (May 13, 4:53 PM)
Average75 °F79%30.06 "Hg
* Reported May 12 11:25 PM — May 27 11:53 PM, Hilo, Weather by CustomWeather, © 2016

Note: Actual official high and low records may vary slightly from our data, if they occured in-between our weather recording intervals... More about our weather records

Advertising

Hilo Weather History for the Previous 24 Hours

Scroll right to see more
 ConditionsComfort  
Time TempWeatherWind HumidityBarometerVisibility
11:53 PM
Fri, May 27
71 °FOvercast.6 mph90%30.09 "Hg10 mi
11:05 PM72 °FLight rain. Fog.10 mph88%30.11 "Hg6 mi
10:36 PM72 °FHeavy rain. Fog.10 mph88%30.12 "Hg2 mi
9:53 PM72 °FLight rain. Mostly cloudy.9 mph87%30.12 "Hg7 mi
9:10 PM72 °FLight rain. Fog.9 mph88%30.11 "Hg5 mi
8:53 PM72 °FLight rain. Fog.12 mph87%30.10 "Hg6 mi
8:38 PM72 °FLight rain. Fog.8 mph88%30.10 "Hg5 mi
8:02 PM72 °FRain. Fog.10 mph94%30.10 "Hg3 mi
7:53 PM72 °FHeavy rain. Fog.10 mph91%30.09 "Hg1 mi
7:22 PM73 °FLight rain. Fog.13 mph89%30.08 "Hg4 mi
7:15 PM73 °FRain. Mostly cloudy.10 mph89%30.08 "Hg2 mi
6:53 PM76 °FPassing clouds.9 mph82%30.06 "Hg10 mi
5:53 PM79 °FPartly sunny.7 mph69%30.05 "Hg10 mi
4:53 PM79 °FBroken clouds.6 mph72%30.03 "Hg10 mi
3:53 PM80 °FCloudy.12 mph67%30.03 "Hg10 mi
2:53 PM80 °FCloudy.13 mph69%30.03 "Hg10 mi
1:53 PM81 °FBroken clouds.15 mph67%30.04 "Hg10 mi
12:53 PM82 °FBroken clouds.15 mph65%30.06 "Hg10 mi
11:53 AM83 °FScattered clouds.17 mph65%30.08 "Hg10 mi
10:53 AM81 °FScattered clouds.12 mph67%30.09 "Hg10 mi
9:53 AM83 °FSunny.9 mph59%30.09 "Hg10 mi
8:53 AM79 °FPartly sunny.7 mph67%30.10 "Hg10 mi
7:53 AM78 °FScattered clouds.No wind64%30.09 "Hg10 mi
6:53 AM72 °FScattered clouds.6 mph73%30.09 "Hg10 mi
5:53 AM69 °FScattered clouds.7 mph76%30.07 "Hg10 mi
4:53 AM70 °FPassing clouds.5 mph79%30.06 "Hg10 mi
3:53 AM70 °FPassing clouds.No wind79%30.06 "Hg10 mi
2:53 AM70 °FPassing clouds.6 mph79%30.06 "Hg10 mi
1:53 AM71 °FClear.6 mph78%30.07 "Hg10 mi
Weather by CustomWeather, © 2016

See weather overviewHow to use our weather pages